This is the latest recevied weather packets stored in our database for station/object KC3ROS. If no packets are shown the sender has not sent any weather packets the latest 10 day(s).
| Time | Temp. | Humidity | Pressure | Rain* | Wind** | Luminosity | Snow |
|---|---|---|---|---|---|---|---|
| 1777679707 | 5° C | 99% | 1011.7 hPa | 0 mm | - | 2 W/m² | - |
| 1777679403 | 5° C | 99% | 1011.6 hPa | 0 mm | - | 5 W/m² | - |
| 1777679099 | 5° C | 99% | 1011.5 hPa | 0 mm | - | 7 W/m² | - |
| 1777678798 | 5.56° C | 99% | 1011.4 hPa | 0 mm | - | 6 W/m² | - |
| 1777678495 | 5.56° C | 99% | 1010.8 hPa | 0 mm | - | 4 W/m² | - |
| 1777678190 | 5.56° C | 99% | 1010.8 hPa | 0 mm | - | 6 W/m² | - |
| 1777677888 | 5.56° C | 99% | 1010.5 hPa | 0 mm | - | 16 W/m² | - |
| 1777677585 | 5.56° C | 99% | 1010.6 hPa | 0 mm | - | 39 W/m² | - |
| 1777677283 | 5.56° C | 99% | 1010.5 hPa | 0.51 mm | - | 32 W/m² | - |
| 1777676981 | 5.56° C | 99% | 1010.4 hPa | 0.51 mm | - | 47 W/m² | - |
| 1777676680 | 5.56° C | 99% | 1010.1 hPa | 1.27 mm | - | 42 W/m² | - |
| 1777676377 | 5.56° C | 98% | 1010.5 hPa | 1.78 mm | - | 31 W/m² | - |
| 1777676075 | 5.56° C | 98% | 1010.8 hPa | 0.51 mm | - | 11 W/m² | - |
| 1777675770 | 6.11° C | 98% | 1010.5 hPa | 1.78 mm | - | 8 W/m² | - |
| 1777675468 | 6.11° C | 97% | 1010.3 hPa | 4.83 mm | - | 13 W/m² | - |
| 1777675165 | 6.67° C | 96% | 1010.1 hPa | 2.29 mm | - | 6 W/m² | - |
| 1777674861 | 7.78° C | 97% | 1009.7 hPa | 0 mm | - | 6 W/m² | - |
| 1777674557 | 7.78° C | 97% | 1009.8 hPa | 0 mm | - | 27 W/m² | - |
| 1777674255 | 7.78° C | 97% | 1009.8 hPa | 0 mm | - | 22 W/m² | - |
| 1777673951 | 7.78° C | 97% | 1009.6 hPa | 0 mm | - | 33 W/m² | - |
| 1777673648 | 7.78° C | 97% | 1010.1 hPa | 0 mm | - | 27 W/m² | - |
| 1777673346 | 8.33° C | 96% | 1010 hPa | 0 mm | - | 47 W/m² | - |
| 1777673043 | 7.78° C | 97% | 1009.8 hPa | 0 mm | - | 62 W/m² | - |
| 1777672739 | 7.78° C | 97% | 1009.8 hPa | 0 mm | - | 120 W/m² | - |
| 1777672435 | 7.78° C | 98% | 1009.9 hPa | 0 mm | - | 33 W/m² | - |
* Rain latest hour (hover to see other rain measurements)
** Current wind speed in m/s (hover to see current wind gust speed)